COSMOS 2302

Satellite information

Favourite Embed

Satellite Type and Status

PAYLOADIN ORBIT

Key statistics

Satellite COSMOS 2302 at a glance.

Uptime

11269

Days in orbit

Revolutions

≈ 12.6

Per day

Orbit

LEO

Low Earth Orbit

Inclination

82.6

Latest

Satellite identification and parameters

Extended collection of information and parameters for COSMOS 2302.

Object identification

Identified? True

Debris? False

Object name: COSMOS 2302

International designator: 1994-086D

Object number (NORAD): 23444

Object ID (CCSDS): 23444

Country: COMMONWEALTH OF INDEPENDENT STATES (CIS)

Current information (Y/N): Y

RCS size: MEDIUM

Orbital parameters

Period: 114.171 minutes

Inclination: 82.561 deg

SMA: 7795.86 km

Apoapsis: 1423.017 km

Periapsis: 1412.433 km

RAAN: 112.5753 deg

Eccentricy: 0.00067888

Argument of periapsis: 344.9134 deg

Mean anomaly: 69.8394 deg

Mean motion: 12.61266073 rev/day

Mean motion (dot): 0.00000053 rev/day2

B* drag term: 0.00023819491 1/REarth

Two-line elements (TLE)

Creation date: Nov. 1, 2025, 7:40 p.m.

Reference frame: TEME

Reference center: EARTH

Epoch: Nov. 1, 2025, 11:30 a.m. UTC

TLE line 0: 0 COSMOS 2302

TLE line 1: 1 23444U 94086D 25305.47930258 .00000053 00000-0 23819-3 0 9991

TLE line 2: 2 23444 82.5610 112.5753 0006789 344.9134 69.8394 12.61266073420114

Live tracking on map

Real-time ground track for satellite COSMOS 2302.

In-orbit conjunctions

A list of the most updated potential collisions computed for object COSMOS 2302.

Target Orbit TCA Probability of collision Miss distance Type
COSMOS 1998 LEO 2024-10-04 02:41:54 0.0003796894 192.0 (m) PAYLOAD

Associated space launch

Second generation store-dump military communications satellites

COSMOS 2302 was lifted into orbit during the mission ‘Tsiklon-3 | Strela-3 107 to 112’, on board a Tsiklon-3 space rocket.

The launch took place on Dec. 26, 1994, 10:26 p.m. from 32/2.

For more information about the launch, click the button.

Launch to space Tsiklon-3 | Strela-3 107 to 112
Tsiklon-3 | Strela-3 107 to 112

Agency: N/A

Status: Launch Successful

Launch date: Dec. 26, 1994, 10:26 p.m. UTC

Rocket: Tsiklon-3

Launch pad: 32/2

Location: Plesetsk Cosmodrome, Russian Federation

...

Latest news about this satellite

There are no fresh news available about this satellite. Check back as we update our databases every day.


Newsletter sign-up

Weekly statistics, charts and insights to help you stay on top of the space industry.